When you browse on this site, cookies collect data to enhance your experience and personalize the content and advertising you see.
Visit our Privacy Policy to learn more. By continuing to use the site, you agree to this use of cookies and data.
  • In Belgien
  • Länderverzeichnis
  • Für 7 Tage
  • Wassertemperatur
  • Wetterkarte
  • Widgets
  • user-avatar
    Anmelden

    Stündliche Wetter Polotsk

    Heute, 31 Mai, Sonntag

    Zeit Temperatur Niederschläge Wind Luftdruck Luftfeuchtigkeit
    00:00 +14°C° 0 mm 7 m/S 743 mmHg 73%
    01:00 +14°C° 0 mm 7 m/S 744 mmHg 70%
    02:00 +14°C° 0 mm 7 m/S 744 mmHg 67%
    03:00 +12°C° 0 mm 7 m/S 744 mmHg 67%
    04:00 +12°C° 0 mm 7 m/S 744 mmHg 67%
    05:00 +11°C° 0 mm 7 m/S 744 mmHg 66%
    06:00 +11°C° 0 mm 7 m/S 744 mmHg 66%
    07:00 +12°C° 0 mm 8 m/S 745 mmHg 67%
    08:00 +12°C° 0 mm 8 m/S 745 mmHg 67%
    09:00 +13°C° 0 mm 8 m/S 746 mmHg 62%
    10:00 +16°C° 0 mm 8 m/S 746 mmHg 58%
    11:00 +17°C° 0 mm 8 m/S 746 mmHg 53%
    12:00 +17°C° 0 mm 8 m/S 747 mmHg 51%
    13:00 +18°C° 0 mm 8 m/S 747 mmHg 49%
    14:00 +20°C° 0 mm 7 m/S 747 mmHg 47%
    15:00 +18°C° 0 mm 7 m/S 747 mmHg 48%
    16:00 +18°C° 0 mm 7 m/S 747 mmHg 49%
    17:00 +17°C° 0 mm 6 m/S 747 mmHg 51%
    18:00 +16°C° 0 mm 6 m/S 748 mmHg 53%
    19:00 +14°C° 0 mm 6 m/S 748 mmHg 56%
    20:00 +12°C° 0 mm 5 m/S 749 mmHg 58%
    21:00 +10°C° 0 mm 5 m/S 749 mmHg 58%
    22:00 +9°C° 0 mm 5 m/S 749 mmHg 58%
    23:00 +8°C° 0 mm 5 m/S 749 mmHg 58%

    Morgen, 1 Juni, Montag

    Zeit Temperatur Niederschläge Wind Luftdruck Luftfeuchtigkeit
    00:00 +7°C° 0 mm 5 m/S 750 mmHg 62%
    01:00 +6°C° 0 mm 4 m/S 750 mmHg 65%
    02:00 +6°C° 0 mm 4 m/S 750 mmHg 68%
    03:00 +5°C° 0 mm 4 m/S 750 mmHg 70%
    04:00 +5°C° 0 mm 4 m/S 750 mmHg 72%
    05:00 +5°C° 0 mm 4 m/S 750 mmHg 74%
    06:00 +6°C° 0 mm 5 m/S 750 mmHg 68%
    07:00 +7°C° 0 mm 5 m/S 750 mmHg 63%
    08:00 +9°C° 0 mm 6 m/S 750 mmHg 57%
    09:00 +10°C° 0 mm 6 m/S 750 mmHg 54%
    10:00 +11°C° 0 mm 6 m/S 750 mmHg 52%
    11:00 +13°C° 0 mm 6 m/S 750 mmHg 49%
    12:00 +13°C° 0 mm 6 m/S 750 mmHg 50%
    13:00 +13°C° 0 mm 6 m/S 750 mmHg 51%
    14:00 +13°C° 0 mm 5 m/S 749 mmHg 52%
    15:00 +13°C° 0 mm 5 m/S 749 mmHg 53%
    16:00 +13°C° 0 mm 5 m/S 749 mmHg 55%
    17:00 +13°C° 0 mm 4 m/S 749 mmHg 57%
    18:00 +12°C° 0.1 mm 4 m/S 749 mmHg 62%
    19:00 +11°C° 0.1 mm 3 m/S 749 mmHg 68%
    20:00 +10°C° 0.1 mm 3 m/S 749 mmHg 73%
    21:00 +9°C° 0 mm 3 m/S 749 mmHg 75%
    22:00 +8°C° 0 mm 3 m/S 748 mmHg 77%
    23:00 +7°C° 0 mm 3 m/S 748 mmHg 79%

    übermorgen, 2 Juni, Dienstag

    Zeit Temperatur Niederschläge Wind Luftdruck Luftfeuchtigkeit
    00:00 +5°C° 0 mm 3 m/S 748 mmHg 82%
    01:00 +5°C° 0 mm 3 m/S 748 mmHg 85%
    02:00 +4°C° 0 mm 3 m/S 747 mmHg 87%
    03:00 +5°C° 0 mm 4 m/S 747 mmHg 87%
    04:00 +5°C° 0 mm 4 m/S 747 mmHg 86%
    05:00 +5°C° 0 mm 4 m/S 747 mmHg 85%
    06:00 +7°C° 0 mm 5 m/S 747 mmHg 77%
    07:00 +9°C° 0 mm 6 m/S 747 mmHg 68%
    08:00 +11°C° 0 mm 6 m/S 746 mmHg 59%
    09:00 +12°C° 0 mm 7 m/S 746 mmHg 55%
    10:00 +14°C° 0 mm 7 m/S 746 mmHg 51%
    11:00 +15°C° 0 mm 7 m/S 745 mmHg 48%
    12:00 +15°C° 0 mm 7 m/S 745 mmHg 49%
    13:00 +15°C° 0 mm 7 m/S 745 mmHg 51%
    14:00 +15°C° 0 mm 7 m/S 744 mmHg 52%
    15:00 +14°C° 0.2 mm 6 m/S 744 mmHg 60%
    16:00 +13°C° 0.2 mm 5 m/S 744 mmHg 69%
    17:00 +12°C° 0.2 mm 3 m/S 743 mmHg 77%
    18:00 +11°C° 0 mm 4 m/S 743 mmHg 75%
    19:00 +11°C° 0 mm 4 m/S 743 mmHg 74%
    20:00 +10°C° 0 mm 5 m/S 743 mmHg 72%
    21:00 +10°C° 0 mm 5 m/S 743 mmHg 73%
    22:00 +9°C° 0 mm 5 m/S 743 mmHg 74%
    23:00 +9°C° 0 mm 5 m/S 742 mmHg 75%

    3 Juni, Mittwoch

    Zeit Temperatur Niederschläge Wind Luftdruck Luftfeuchtigkeit
    00:00 +9°C° 0.1 mm 5 m/S 742 mmHg 78%
    01:00 +8°C° 0.1 mm 4 m/S 742 mmHg 82%
    02:00 +8°C° 0.1 mm 4 m/S 741 mmHg 86%
    03:00 +8°C° 0.7 mm 4 m/S 741 mmHg 89%
    04:00 +8°C° 0.7 mm 5 m/S 741 mmHg 92%
    05:00 +8°C° 0.7 mm 5 m/S 740 mmHg 95%
    06:00 +8°C° 1.6 mm 5 m/S 740 mmHg 95%
    07:00 +10°C° 1.6 mm 4 m/S 740 mmHg 96%
    08:00 +10°C° 1.6 mm 4 m/S 740 mmHg 96%
    09:00 +11°C° 0.2 mm 4 m/S 741 mmHg 94%
    10:00 +12°C° 0.2 mm 4 m/S 741 mmHg 92%
    11:00 +13°C° 0.2 mm 4 m/S 741 mmHg 90%
    12:00 +14°C° 0.3 mm 4 m/S 741 mmHg 80%
    13:00 +17°C° 0.3 mm 4 m/S 741 mmHg 71%
    14:00 +18°C° 0.3 mm 4 m/S 741 mmHg 61%
    15:00 +18°C° 0.2 mm 4 m/S 741 mmHg 63%
    16:00 +18°C° 0.2 mm 4 m/S 741 mmHg 65%
    17:00 +17°C° 0.2 mm 4 m/S 741 mmHg 67%
    18:00 +16°C° 0.2 mm 3 m/S 741 mmHg 74%
    19:00 +14°C° 0.2 mm 3 m/S 741 mmHg 80%
    20:00 +13°C° 0.2 mm 2 m/S 741 mmHg 87%
    21:00 +12°C° 0.1 mm 2 m/S 741 mmHg 90%
    22:00 +10°C° 0.1 mm 2 m/S 741 mmHg 92%
    23:00 +9°C° 0.1 mm 2 m/S 741 mmHg 95%

    4 Juni, Donnerstag

    Zeit Temperatur Niederschläge Wind Luftdruck Luftfeuchtigkeit
    00:00 +9°C° 0 mm 2 m/S 741 mmHg 95%
    01:00 +9°C° 0 mm 2 m/S 741 mmHg 96%
    02:00 +9°C° 0 mm 2 m/S 740 mmHg 96%
    03:00 +9°C° 0 mm 2 m/S 741 mmHg 96%
    04:00 +9°C° 0 mm 2 m/S 741 mmHg 96%
    05:00 +9°C° 0 mm 2 m/S 741 mmHg 96%
    06:00 +10°C° 0 mm 3 m/S 741 mmHg 91%
    07:00 +12°C° 0 mm 3 m/S 741 mmHg 86%
    08:00 +13°C° 0 mm 4 m/S 741 mmHg 81%
    09:00 +14°C° 0.2 mm 4 m/S 741 mmHg 76%
    10:00 +15°C° 0.2 mm 4 m/S 741 mmHg 72%
    11:00 +17°C° 0.2 mm 4 m/S 741 mmHg 68%
    12:00 +18°C° 0.4 mm 4 m/S 741 mmHg 67%
    13:00 +18°C° 0.4 mm 4 m/S 740 mmHg 66%
    14:00 +18°C° 0.4 mm 3 m/S 740 mmHg 65%
    15:00 +18°C° 0.2 mm 2 m/S 740 mmHg 64%
    16:00 +18°C° 0.2 mm 2 m/S 740 mmHg 64%
    17:00 +19°C° 0.2 mm 1 m/S 740 mmHg 64%
    18:00 +16°C° 0.2 mm 1 m/S 739 mmHg 71%
    19:00 +15°C° 0.2 mm 1 m/S 739 mmHg 78%
    20:00 +14°C° 0.2 mm 1 m/S 739 mmHg 85%
    21:00 +13°C° 0 mm 1 m/S 739 mmHg 88%
    22:00 +12°C° 0 mm 1 m/S 739 mmHg 90%
    23:00 +11°C° 0 mm 1 m/S 739 mmHg 93%

    5 Juni, Freitag

    Zeit Temperatur Niederschläge Wind Luftdruck Luftfeuchtigkeit
    00:00 +9°C° 0 mm 0 m/S 739 mmHg 93%
    01:00 +9°C° 0 mm 0 m/S 739 mmHg 94%
    02:00 +8°C° 0 mm 0 m/S 739 mmHg 94%
    03:00 +9°C° 0 mm 0 m/S 738 mmHg 95%
    04:00 +9°C° 0 mm 0 m/S 738 mmHg 95%
    05:00 +9°C° 0 mm 0 m/S 738 mmHg 95%
    06:00 +11°C° 0 mm 0 m/S 738 mmHg 89%
    07:00 +13°C° 0 mm 0 m/S 738 mmHg 83%
    08:00 +16°C° 0 mm 1 m/S 738 mmHg 77%
    09:00 +19°C° 0.1 mm 1 m/S 738 mmHg 70%
    10:00 +20°C° 0.1 mm 1 m/S 738 mmHg 64%
    11:00 +21°C° 0.1 mm 1 m/S 738 mmHg 58%
    12:00 +22°C° 0.3 mm 1 m/S 738 mmHg 58%
    13:00 +22°C° 0.3 mm 1 m/S 738 mmHg 58%
    14:00 +22°C° 0.3 mm 1 m/S 738 mmHg 58%
    15:00 +22°C° 0.4 mm 1 m/S 738 mmHg 61%
    16:00 +21°C° 0.4 mm 1 m/S 738 mmHg 64%
    17:00 +21°C° 0.4 mm 1 m/S 738 mmHg 66%
    18:00 +20°C° 0.2 mm 1 m/S 738 mmHg 72%
    19:00 +18°C° 0.2 mm 1 m/S 738 mmHg 78%
    20:00 +16°C° 0.2 mm 1 m/S 738 mmHg 85%
    21:00 +15°C° 0 mm 1 m/S 738 mmHg 86%
    22:00 +14°C° 0 mm 1 m/S 739 mmHg 88%
    23:00 +13°C° 0 mm 1 m/S 739 mmHg 90%
    Mehr zeigen